INMARSAT 5-F3 (40882 NORAD) Tracking and Keplerian Element Data

This shows tracking and keplerian element data for the satellite.

Feedback or suggestion? Click here.




ElementValue
Catalog40882
NameINMARSAT 5-F3
Epoch Orbit3341
Epoch Day286.65570941
Epoch Year2024
RAAN133.445
Inclination0.013
Eccentricity4.54E-05
Argument of Perigee336.6911
Mean Anonmoly327.2492
Mean Motion1.0027164
Decay Rate5E-07
L11 40882U 15042A 24286.65570941 .00000050 00000+0 00000+0 0 9996
L22 40882 0.0130 133.4450 0000454 336.6911 327.2492 1.00271640 33411



Live tracking and technical data element details for INMARSAT 5-F3 (NORAD 40882). INMARSAT 5-F3 can be tracked NOW for your location showing map with azimuth and elevation plus other details from your city location.







IsCatalogInMostPopularTable: catalog: 40882, numindb: 603
Update: records affected: 1



GetName: 40882 INMARSAT 5-F3

Hit Count: updated at: Tue, 03 Dec 2024 01:51:53 GMT